{"data":{"norad_id":51974,"intl_designator":"2022-025U","name":"STARLINK-3672","alt_names":[],"object_type":"PAYLOAD","status":"ACTIVE","operator":null,"country":"US","launch_date":"2022-03-09","launch_site_code":"AFETR","launch_vehicle":null,"mission":null,"orbit_class":"UNKNOWN","rcs_meters":null,"size_class":null,"mass_kg":null,"dimensions":null,"purposes":["comms"],"wikipedia_slug":null,"has_3d_model":false,"image_url":null,"decayed_at":null,"tle_current":{"epoch":"2026-05-24T23:09:39.613248Z","epoch_age_seconds":72059,"freshness":"FRESH","line1":"1 51974U 22025U   26144.96504182 -.00000133  00000+0  76430-5 0  9991","line2":"2 51974  53.1604  42.4228 0001282  93.8754 266.2393 15.30189816232503","mean_motion":15.30189816,"eccentricity":0.0001282,"inclination_deg":53.1604,"raan_deg":42.4228,"arg_perigee_deg":93.8754,"mean_anomaly_deg":266.2393,"bstar":7.643e-6,"rev_number":23250,"period_min":94.105972013605,"perigee_km":474.36687354272,"apogee_km":476.12408080986,"semimajor_km":6853.3824771763,"source":"CELESTRAK","updated_at":"2026-05-25T13:38:16.994438Z"}}}